Bloomington, IN

2:51 AM EDT on June 24, 2017 (GMT -0400)
Monroe County

Weather History for KBMG - October, 2010

Change the Weather History Date:

Sunday, October 3, 2010

  Actual Average Record
Temperature  
Mean Temperature 47 °F 59 °F  
Max Temperature 59 °F 71 °F 86 °F (2005)
Min Temperature 34 °F 46 °F 30 °F (2003)
Degree Days  
Heating Degree Days 18 7  
Month to date heating degree days 38 21  
Since 1 July heating degree days 78 106  
Cooling Degree Days 0 1  
Month to date cooling degree days 0 3  
Year to date cooling degree days 1308 916  
Moisture  
Dew Point 38 °F    
Average Humidity 67    
Maximum Humidity 93    
Minimum Humidity 40    
Precipitation  
Precipitation 0.00 in 0.12 in 0.69 in (2014)
Month to date precipitation 0.18 0.36  
Year to date precipitation 30.61 36.90  
Sea Level Pressure  
Sea Level Pressure 30.24 in    
Wind  
Wind Speed 9 mph (North)    
Max Wind Speed 20 mph    
Max Gust Speed 26 mph    
Visibility 10 miles    
Events      
T = Trace of Precipitation, MM = Missing Value Source: NWS Daily Summary

Daily Weather History Graph

Daily Weather History Graph

Search for Another Location

Airport or City:

Trip Planner

Search our weather history database for the weather conditions in past years. The results will help you decide how hot, cold, wet, or windy it might be!

Date:

Astronomy

Oct. 03, 2010 Rise Set
Actual Time 7:44 AM EDT 7:25 PM EDT
Civil Twilight 7:17 AM EDT 7:52 PM EDT
Nautical Twilight 6:46 AM EDT 8:23 PM EDT
Astronomical Twilight 6:15 AM EDT 8:54 PM EDT
Moon 2:41 AM EDT (10/3) 4:48 PM EDT (10/3)
Length of Visible Light 12h 34m
Length of Day
11h 41m
Waning Crescent, 23% of the Moon is Illuminated
Oct 3
Waning Crescent
Oct 7
New
Oct 14
First Quarter
Oct 22
Full
Oct 30
Last Quarter

Hourly Weather History & Observations

Time (EDT) Temp. Windchill Dew Point Humidity Pressure Visibility Wind Dir Wind Speed Gust Speed Precip Events Conditions
12:53 AM 46.9 °F - 42.1 °F 83% 30.17 in 10.0 mi North 5.8 mph - N/A   Mostly Cloudy
1:04 AM 46.4 °F 42.9 °F 42.8 °F 87% 30.16 in 10.0 mi North 6.9 mph - N/A   Scattered Clouds
1:53 AM 45.0 °F 40.6 °F 41.0 °F 86% 30.17 in 10.0 mi North 8.1 mph - N/A   Clear
2:53 AM 46.0 °F 42.5 °F 42.1 °F 86% 30.18 in 10.0 mi North 6.9 mph - N/A   Mostly Cloudy
3:48 AM 44.6 °F 39.7 °F 41.0 °F 87% 30.18 in 10.0 mi North 9.2 mph - N/A   Mostly Cloudy
3:53 AM 46.0 °F 41.0 °F 42.1 °F 86% 30.18 in 10.0 mi North 10.4 mph - N/A   Mostly Cloudy
4:53 AM 46.0 °F 41.4 °F 42.1 °F 86% 30.18 in 10.0 mi North 9.2 mph - N/A   Mostly Cloudy
5:53 AM 43.0 °F 38.2 °F 39.9 °F 89% 30.20 in 10.0 mi North 8.1 mph - N/A   Scattered Clouds
6:53 AM 41.0 °F 35.8 °F 39.0 °F 93% 30.22 in 10.0 mi North 8.1 mph - N/A   Clear
7:53 AM 41.0 °F 38.0 °F 39.0 °F 93% 30.24 in 10.0 mi North 4.6 mph - N/A   Scattered Clouds
8:53 AM 44.1 °F 37.7 °F 39.9 °F 85% 30.27 in 10.0 mi North 12.7 mph - N/A   Clear
9:53 AM 46.9 °F - 37.9 °F 71% 30.28 in 10.0 mi North 12.7 mph - N/A   Clear
10:53 AM 46.9 °F - 37.9 °F 71% 30.30 in 10.0 mi North 9.2 mph - N/A   Overcast
11:53 AM 53.1 °F - 39.0 °F 59% 30.29 in 10.0 mi NNE 9.2 mph - N/A   Clear
12:53 PM 55.9 °F - 37.0 °F 49% 30.28 in 10.0 mi NNE 16.1 mph 21.9 mph N/A   Mostly Cloudy
1:53 PM 57.0 °F - 35.1 °F 44% 30.27 in 10.0 mi North 17.3 mph 21.9 mph N/A   Mostly Cloudy
2:53 PM 57.0 °F - 34.0 °F 42% 30.25 in 10.0 mi NNE 18.4 mph 23.0 mph N/A   Overcast
3:53 PM 55.0 °F - 34.0 °F 45% 30.26 in 10.0 mi North 12.7 mph 19.6 mph N/A   Overcast
4:53 PM 55.0 °F - 35.1 °F 47% 30.26 in 10.0 mi North 12.7 mph - N/A   Overcast
5:53 PM 55.0 °F - 34.0 °F 45% 30.26 in 10.0 mi North 10.4 mph - N/A   Overcast
6:53 PM 55.0 °F - 34.0 °F 45% 30.27 in 10.0 mi NNE 11.5 mph - N/A   Overcast
7:53 PM 51.1 °F - 34.0 °F 52% 30.28 in 10.0 mi NNE 6.9 mph - N/A   Overcast
8:53 PM 45.0 °F - 35.1 °F 68% 30.30 in 10.0 mi Calm Calm - N/A   Scattered Clouds
9:53 PM 42.1 °F - 35.1 °F 76% 30.30 in 10.0 mi Calm Calm - N/A   Scattered Clouds
10:53 PM 37.9 °F - 35.1 °F 89% 30.30 in 10.0 mi Calm Calm - N/A   Clear
11:53 PM 36.0 °F - 33.1 °F 89% 30.30 in 10.0 mi Calm Calm - N/A   Clear